| time (UTC) | temp F | wind direction | speed MPH | gust MPH | rain 1hr in | rain 24hr in | rain mn in | humidity % | barometer mb |
| 20260502164208 | 76 | 224 | 3.0 | 5.0 | 0.00 | 0.00 | 0.00 | 34 | 1020.7 |
| 20260502163608 | 76 | 223 | 3.0 | 5.0 | 0.00 | 0.00 | 0.00 | 34 | 1020.7 |
| 20260502163009 | 77 | 226 | 2.0 | 4.0 | 0.00 | 0.00 | 0.00 | 35 | 1020.8 |
| 20260502162410 | 77 | 231 | 2.0 | 3.0 | 0.00 | 0.00 | 0.00 | 34 | 1020.9 |
| 20260502161807 | 76 | 223 | 4.0 | 5.0 | 0.00 | 0.00 | 0.00 | 35 | 1020.9 |
| 20260502161207 | 77 | 234 | 4.0 | 7.0 | 0.00 | 0.00 | 0.00 | 34 | 1020.9 |
| 20260502160609 | 77 | 239 | 3.0 | 5.0 | 0.00 | 0.00 | 0.00 | 33 | 1021.0 |
| 20260502151807 | 77 | 230 | 3.0 | 5.0 | 0.00 | 0.00 | 0.00 | 32 | 1021.4 |
| 20260502151207 | 78 | 224 | 2.0 | 3.0 | 0.00 | 0.00 | 0.00 | 32 | 1021.4 |
| 20260502150607 | 78 | 227 | 2.0 | 5.0 | 0.00 | 0.00 | 0.00 | 32 | 1021.5 |
| 20260502130609 | 76 | 268 | 3.0 | 8.0 | 0.00 | 0.00 | 0.00 | 33 | 1022.9 |
| 20260502123607 | 75 | 216 | 5.0 | 6.0 | 0.00 | 0.00 | 0.00 | 33 | 1023.4 |
| 20260502122408 | 76 | 259 | 5.0 | 9.0 | 0.00 | 0.00 | 0.00 | 33 | 1023.6 |
| 20260502121807 | 75 | 272 | 3.0 | 6.0 | 0.00 | 0.00 | 0.00 | 33 | 1023.5 |
| 20260502121207 | 76 | 301 | 1.0 | 2.0 | 0.00 | 0.00 | 0.00 | 34 | 1023.6 |
| 20260502120609 | 76 | 182 | 3.0 | 4.0 | 0.00 | 0.00 | 0.00 | 35 | 1023.7 |
| 20260502115407 | 74 | 14 | 2.0 | 3.0 | 0.00 | 0.00 | 0.00 | 35 | 1023.9 |
| 20260502114810 | 74 | 239 | 2.0 | 4.0 | 0.00 | 0.00 | 0.00 | 35 | 1023.9 |
| 20260502114207 | 75 | 232 | 5.0 | 7.0 | 0.00 | 0.00 | 0.00 | 35 | 1023.9 |
| 20260502113607 | 76 | 242 | 3.0 | 5.0 | 0.00 | 0.00 | 0.00 | 34 | 1024.2 |
| 20260502112407 | 72 | 224 | 2.0 | 5.0 | 0.00 | 0.00 | 0.00 | 35 | 1024.2 |
| 20260502111810 | 73 | 228 | 6.0 | 9.0 | 0.00 | 0.00 | 0.00 | 35 | 1024.4 |
| 20260502111207 | 73 | 240 | 3.0 | 5.0 | 0.00 | 0.00 | 0.00 | 35 | 1024.4 |
| 20260502110607 | 74 | 249 | 2.0 | 7.0 | 0.00 | 0.00 | 0.00 | 34 | 1024.6 |
| 20260502105410 | 74 | 284 | 3.0 | 5.0 | 0.00 | 0.00 | 0.00 | 34 | 1024.7 |
| 20260502104808 | 73 | 232 | 3.0 | 5.0 | 0.00 | 0.00 | 0.00 | 36 | 1024.8 |
| 20260502104207 | 74 | 253 | 3.0 | 4.0 | 0.00 | 0.00 | 0.00 | 35 | 1024.8 |
| 20260502103607 | 73 | 236 | 2.0 | 4.0 | 0.00 | 0.00 | 0.00 | 35 | 1024.9 |
| 20260502102407 | 72 | 229 | 4.0 | 7.0 | 0.00 | 0.00 | 0.00 | 36 | 1025.2 |
| 20260502101806 | 73 | 239 | 3.0 | 4.0 | 0.00 | 0.00 | 0.00 | 36 | 1025.2 |
| 20260502101207 | 73 | 183 | 2.0 | 3.0 | 0.00 | 0.00 | 0.00 | 36 | 1025.2 |
| 20260502100607 | 71 | 240 | 3.0 | 5.0 | 0.00 | 0.00 | 0.00 | 36 | 1025.3 |
| 20260502091210 | 70 | 270 | 1.0 | 5.0 | 0.00 | 0.00 | 0.00 | 39 | 1025.8 |
| 20260502090607 | 69 | 222 | 2.0 | 4.0 | 0.00 | 0.00 | 0.00 | 40 | 1025.8 |
| 20260502071207 | 63 | 346 | 1.0 | 2.0 | 0.00 | 0.00 | 0.00 | 50 | 1026.5 |
| 20260502070607 | 63 | 67 | 2.0 | 3.0 | 0.00 | 0.00 | 0.00 | 51 | 1026.5 |
| 20260502065408 | 63 | 264 | 1.0 | 2.0 | 0.00 | 0.00 | 0.00 | 53 | 1026.6 |
| 20260502064807 | 61 | 296 | 0.0 | 2.0 | 0.00 | 0.00 | 0.00 | 54 | 1026.6 |
| 20260502064207 | 60 | 297 | 1.0 | 2.0 | 0.00 | 0.00 | 0.00 | 55 | 1026.5 |
| 20260502063607 | 60 | 299 | 1.0 | 2.0 | 0.00 | 0.00 | 0.00 | 57 | 1026.5 |
| 20260502063007 | 59 | 300 | 1.0 | 2.0 | 0.00 | 0.00 | 0.00 | 55 | 1026.6 |
| 20260502062408 | 59 | 298 | 0.0 | 1.0 | 0.00 | 0.00 | 0.00 | 57 | 1026.6 |
| 20260502061807 | 57 | 298 | 1.0 | 2.0 | 0.00 | 0.00 | 0.00 | 60 | 1026.6 |
| 20260502061208 | 57 | 285 | 2.0 | 2.0 | 0.00 | 0.00 | 0.00 | 60 | 1026.7 |
| 20260502060607 | 57 | 301 | 2.0 | 2.0 | 0.00 | 0.00 | 0.00 | 61 | 1026.6 |
| 20260502055407 | 55 | 292 | 3.0 | 3.0 | 0.00 | 0.00 | 0.00 | 62 | 1026.7 |
| 20260502054807 | 55 | 292 | 2.0 | 3.0 | 0.00 | 0.00 | 0.00 | 63 | 1026.7 |
| 20260502054210 | 54 | 320 | 2.0 | 3.0 | 0.00 | 0.00 | 0.00 | 62 | 1026.6 |
| 20260502053607 | 53 | 296 | 1.0 | 2.0 | 0.00 | 0.00 | 0.00 | 64 | 1026.7 |
| 20260502053006 | 52 | 300 | 1.0 | 3.0 | 0.00 | 0.00 | 0.00 | 66 | 1026.8 |
| 20260502052408 | 52 | 294 | 1.0 | 2.0 | 0.00 | 0.00 | 0.00 | 65 | 1026.7 |
| 20260502051808 | 52 | 294 | 2.0 | 3.0 | 0.00 | 0.00 | 0.00 | 66 | 1026.7 |
| 20260502051207 | 52 | 300 | 2.0 | 2.0 | 0.00 | 0.00 | 0.00 | 66 | 1026.7 |
| 20260502050607 | 52 | 306 | 2.0 | 2.0 | 0.00 | 0.00 | 0.00 | 66 | 1026.7 |
| 20260502045409 | 51 | 306 | 0.0 | 0.0 | 0.00 | 0.00 | 0.00 | 69 | 1026.6 |
| 20260502044807 | 50 | 306 | 1.0 | 2.0 | 0.00 | 0.00 | 0.00 | 69 | 1026.5 |
| 20260502044206 | 50 | 306 | 1.0 | 2.0 | 0.00 | 0.00 | 0.00 | 69 | 1026.6 |
| 20260502043609 | 49 | 306 | 1.0 | 2.0 | 0.00 | 0.00 | 0.00 | 70 | 1026.5 |
| 20260502043009 | 49 | 322 | 2.0 | 2.0 | 0.00 | 0.00 | 0.00 | 71 | 1026.5 |
| 20260502042409 | 48 | 322 | 1.0 | 2.0 | 0.00 | 0.00 | 0.00 | 72 | 1026.5 |
| 20260502041806 | 48 | 322 | 1.0 | 1.0 | 0.00 | 0.00 | 0.00 | 73 | 1026.6 |
| 20260502041208 | 48 | 322 | 2.0 | 2.0 | 0.00 | 0.00 | 0.00 | 74 | 1026.5 |
| 20260502040609 | 48 | 294 | 0.0 | 0.0 | 0.00 | 0.00 | 0.00 | 74 | 1026.6 |
| 20260502035411 | 48 | 294 | 0.0 | 0.0 | 0.00 | 0.00 | 0.00 | 74 | 1026.6 |
| 20260502034808 | 48 | 294 | 0.0 | 0.0 | 0.00 | 0.00 | 0.00 | 74 | 1026.6 |
| 20260502034207 | 48 | 294 | 0.0 | 0.0 | 0.00 | 0.00 | 0.00 | 75 | 1026.6 |
| 20260502033607 | 48 | 294 | 0.0 | 0.0 | 0.00 | 0.00 | 0.00 | 76 | 1026.6 |
| 20260502033008 | 48 | 294 | 0.0 | 0.0 | 0.00 | 0.00 | 0.00 | 75 | 1026.5 |
| 20260502032407 | 48 | 294 | 0.0 | 0.0 | 0.00 | 0.00 | 0.00 | 73 | 1026.5 |
| 20260502031807 | 48 | 294 | 0.0 | 0.0 | 0.00 | 0.00 | 0.00 | 74 | 1026.5 |
| 20260502031207 | 48 | 294 | 0.0 | 0.0 | 0.00 | 0.00 | 0.00 | 73 | 1026.5 |
| 20260502030611 | 48 | 294 | 0.0 | 0.0 | 0.00 | 0.00 | 0.00 | 73 | 1026.6 |
| 20260502025407 | 49 | 294 | 0.0 | 0.0 | 0.00 | 0.00 | 0.00 | 73 | 1026.7 |
| 20260502024807 | 49 | 294 | 0.0 | 0.0 | 0.00 | 0.00 | 0.00 | 73 | 1026.7 |
| 20260502024207 | 49 | 294 | 0.0 | 0.0 | 0.00 | 0.00 | 0.00 | 72 | 1026.7 |
| 20260502023607 | 50 | 294 | 0.0 | 0.0 | 0.00 | 0.00 | 0.00 | 71 | 1026.8 |
| 20260502023009 | 50 | 294 | 0.0 | 0.0 | 0.00 | 0.00 | 0.00 | 71 | 1026.7 |
| 20260502022407 | 50 | 294 | 0.0 | 0.0 | 0.00 | 0.00 | 0.00 | 69 | 1026.7 |
| 20260502021808 | 50 | 294 | 0.0 | 1.0 | 0.00 | 0.00 | 0.00 | 66 | 1026.8 |
| 20260502021207 | 50 | 294 | 0.0 | 1.0 | 0.00 | 0.00 | 0.00 | 67 | 1026.7 |
| 20260502020607 | 50 | 294 | 0.0 | 0.0 | 0.00 | 0.00 | 0.00 | 68 | 1026.7 |
| 20260502015408 | 51 | 294 | 0.0 | 0.0 | 0.00 | 0.00 | 0.00 | 65 | 1026.7 |
| 20260502014807 | 50 | 294 | 1.0 | 2.0 | 0.00 | 0.00 | 0.00 | 66 | 1026.7 |
| 20260502014209 | 50 | 267 | 0.0 | 0.0 | 0.00 | 0.00 | 0.00 | 67 | 1026.6 |
| 20260502013609 | 50 | 267 | 0.0 | 0.0 | 0.00 | 0.00 | 0.00 | 68 | 1026.7 |
| 20260502013009 | 51 | 267 | 0.0 | 0.0 | 0.00 | 0.00 | 0.00 | 68 | 1026.6 |
| 20260502012410 | 51 | 267 | 0.0 | 0.0 | 0.00 | 0.00 | 0.00 | 68 | 1026.6 |
| 20260502011811 | 51 | 267 | 0.0 | 0.0 | 0.00 | 0.00 | 0.00 | 67 | 1026.6 |
| 20260502011208 | 51 | 267 | 0.0 | 0.0 | 0.00 | 0.00 | 0.00 | 65 | 1026.6 |
| 20260502010608 | 50 | 267 | 1.0 | 1.0 | 0.00 | 0.00 | 0.00 | 66 | 1026.6 |
| 20260502005409 | 51 | 267 | 0.0 | 0.0 | 0.00 | 0.00 | 0.00 | 65 | 1026.6 |
| 20260502004810 | 51 | 267 | 0.0 | 0.0 | 0.00 | 0.00 | 0.00 | 62 | 1026.6 |
| 20260502004207 | 51 | 267 | 0.0 | 0.0 | 0.00 | 0.00 | 0.00 | 60 | 1026.6 |
| 20260502003608 | 51 | 267 | 0.0 | 0.0 | 0.00 | 0.00 | 0.00 | 66 | 1026.7 |
| 20260502003009 | 51 | 267 | 0.0 | 0.0 | 0.00 | 0.00 | 0.00 | 63 | 1026.7 |
| 20260502002409 | 51 | 267 | 0.0 | 0.0 | 0.00 | 0.00 | 0.00 | 62 | 1026.7 |
| 20260502001807 | 51 | 267 | 0.0 | 0.0 | 0.00 | 0.00 | 0.00 | 67 | 1026.8 |
| 20260502001207 | 51 | 267 | 0.0 | 0.0 | 0.00 | 0.00 | 0.00 | 63 | 1026.8 |
| 20260502000607 | 51 | 267 | 0.0 | 0.0 | 0.00 | 0.00 | 0.00 | 61 | 1026.7 |
| 20260501235409 | 52 | 267 | 0.0 | 0.0 | 0.00 | 0.00 | 0.00 | 59 | 1026.8 |
| 20260501234807 | 52 | 267 | 0.0 | 0.0 | 0.00 | 0.00 | 0.00 | 61 | 1026.8 |
| 20260501234207 | 52 | 267 | 0.0 | 0.0 | 0.00 | 0.00 | 0.00 | 64 | 1026.9 |
| 20260501233607 | 51 | 267 | 0.0 | 0.0 | 0.00 | 0.00 | 0.00 | 64 | 1026.8 |
| 20260501233011 | 51 | 267 | 0.0 | 0.0 | 0.00 | 0.00 | 0.00 | 65 | 1026.8 |
| 20260501232409 | 52 | 267 | 0.0 | 0.0 | 0.00 | 0.00 | 0.00 | 61 | 1026.7 |
| 20260501231810 | 52 | 267 | 0.0 | 0.0 | 0.00 | 0.00 | 0.00 | 61 | 1026.7 |
| 20260501231208 | 52 | 267 | 0.0 | 0.0 | 0.00 | 0.00 | 0.00 | 62 | 1026.8 |
| 20260501230608 | 53 | 267 | 0.0 | 0.0 | 0.00 | 0.00 | 0.00 | 62 | 1026.8 |
| 20260501225408 | 53 | 267 | 0.0 | 0.0 | 0.00 | 0.00 | 0.00 | 60 | 1026.7 |
| 20260501224809 | 53 | 267 | 0.0 | 0.0 | 0.00 | 0.00 | 0.00 | 61 | 1026.7 |
| 20260501224209 | 53 | 267 | 0.0 | 0.0 | 0.00 | 0.00 | 0.00 | 60 | 1026.8 |
| 20260501223607 | 53 | 267 | 0.0 | 0.0 | 0.00 | 0.00 | 0.00 | 60 | 1026.7 |
| 20260501223007 | 53 | 267 | 0.0 | 0.0 | 0.00 | 0.00 | 0.00 | 58 | 1026.7 |
| 20260501222407 | 53 | 267 | 0.0 | 0.0 | 0.00 | 0.00 | 0.00 | 59 | 1026.8 |
| 20260501221807 | 54 | 267 | 0.0 | 0.0 | 0.00 | 0.00 | 0.00 | 57 | 1026.6 |
| 20260501221210 | 56 | 267 | 0.0 | 0.0 | 0.00 | 0.00 | 0.00 | 58 | 1026.7 |
| 20260501220608 | 56 | 267 | 0.0 | 0.0 | 0.00 | 0.00 | 0.00 | 54 | 1026.5 |
| 20260501215407 | 57 | 267 | 0.0 | 0.0 | 0.00 | 0.00 | 0.00 | 53 | 1026.4 |
| 20260501214808 | 57 | 267 | 0.0 | 0.0 | 0.00 | 0.00 | 0.00 | 53 | 1026.4 |
| 20260501214208 | 57 | 267 | 0.0 | 0.0 | 0.00 | 0.00 | 0.00 | 53 | 1026.4 |
| 20260501213607 | 57 | 267 | 0.0 | 2.0 | 0.00 | 0.00 | 0.00 | 49 | 1026.2 |
| 20260501213007 | 57 | 267 | 2.0 | 2.0 | 0.00 | 0.00 | 0.00 | 50 | 1026.3 |
| 20260501212407 | 57 | 246 | 1.0 | 2.0 | 0.00 | 0.00 | 0.00 | 52 | 1026.3 |
| 20260501211807 | 57 | 246 | 0.0 | 0.0 | 0.00 | 0.00 | 0.00 | 52 | 1026.2 |
| 20260501211209 | 58 | 246 | 0.0 | 0.0 | 0.00 | 0.00 | 0.00 | 50 | 1026.1 |
| 20260501210610 | 58 | 246 | 0.0 | 0.0 | 0.00 | 0.00 | 0.00 | 49 | 1026.2 |
| 20260501205407 | 58 | 246 | 0.0 | 0.0 | 0.00 | 0.00 | 0.00 | 48 | 1026.1 |
| 20260501204807 | 58 | 246 | 0.0 | 0.0 | 0.00 | 0.00 | 0.00 | 50 | 1026.2 |
| 20260501204209 | 59 | 246 | 0.0 | 0.0 | 0.00 | 0.00 | 0.00 | 50 | 1026.1 |
| 20260501203607 | 59 | 246 | 1.0 | 2.0 | 0.00 | 0.00 | 0.00 | 47 | 1026.1 |
| 20260501203007 | 58 | 229 | 1.0 | 2.0 | 0.00 | 0.00 | 0.00 | 47 | 1026.1 |
| 20260501202408 | 58 | 227 | 0.0 | 0.0 | 0.00 | 0.00 | 0.00 | 49 | 1026.0 |
| 20260501201807 | 59 | 227 | 0.0 | 0.0 | 0.00 | 0.00 | 0.00 | 49 | 1026.0 |
| 20260501201207 | 59 | 227 | 0.0 | 0.0 | 0.00 | 0.00 | 0.00 | 47 | 1025.9 |
| 20260501200607 | 59 | 227 | 0.0 | 0.0 | 0.00 | 0.00 | 0.00 | 47 | 1026.0 |
| 20260501195407 | 59 | 227 | 0.0 | 0.0 | 0.00 | 0.00 | 0.00 | 46 | 1025.9 |
| 20260501194925 | 59 | 227 | 0.0 | 0.0 | 0.00 | 0.00 | 0.00 | 44 | 1025.9 |
| 20260501194807 | 59 | 227 | 0.0 | 0.0 | 0.00 | 0.00 | 0.00 | 44 | 1025.9 |
| 20260501194210 | 60 | 227 | 0.0 | 0.0 | 0.00 | 0.00 | 0.00 | 44 | 1025.9 |
| 20260501193608 | 60 | 227 | 1.0 | 2.0 | 0.00 | 0.00 | 0.00 | 42 | 1025.7 |
| 20260501193007 | 60 | 227 | 0.0 | 0.0 | 0.00 | 0.00 | 0.00 | 44 | 1025.7 |
| 20260501192407 | 61 | 227 | 0.0 | 1.0 | 0.00 | 0.00 | 0.00 | 42 | 1025.7 |
| 20260501191807 | 60 | 227 | 1.0 | 1.0 | 0.00 | 0.00 | 0.00 | 41 | 1025.7 |
| 20260501191207 | 61 | 227 | 0.0 | 0.0 | 0.00 | 0.00 | 0.00 | 44 | 1025.7 |
| 20260501190610 | 61 | 227 | 0.0 | 0.0 | 0.00 | 0.00 | 0.00 | 42 | 1025.6 |
| 20260501185408 | 62 | 228 | 0.0 | 0.0 | 0.00 | 0.00 | 0.00 | 39 | 1025.5 |
| 20260501184807 | 63 | 226 | 0.0 | 0.0 | 0.00 | 0.00 | 0.00 | 38 | 1025.5 |
| 20260501184209 | 63 | 225 | 0.0 | 1.0 | 0.00 | 0.00 | 0.00 | 38 | 1025.4 |
| 20260501183609 | 63 | 226 | 1.0 | 2.0 | 0.00 | 0.00 | 0.00 | 38 | 1025.3 |
| 20260501183007 | 64 | 226 | 0.0 | 1.0 | 0.00 | 0.00 | 0.00 | 36 | 1025.3 |
| 20260501182407 | 64 | 225 | 0.0 | 0.0 | 0.00 | 0.00 | 0.00 | 37 | 1025.3 |
| 20260501181807 | 64 | 225 | 2.0 | 2.0 | 0.00 | 0.00 | 0.00 | 36 | 1025.3 |
| 20260501181209 | 65 | 225 | 2.0 | 2.0 | 0.00 | 0.00 | 0.00 | 36 | 1025.2 |
| 20260501180609 | 65 | 222 | 2.0 | 2.0 | 0.00 | 0.00 | 0.00 | 35 | 1025.2 |
| 20260501175407 | 66 | 206 | 2.0 | 2.0 | 0.00 | 0.00 | 0.00 | 34 | 1025.1 |
| 20260501174808 | 66 | 236 | 2.0 | 3.0 | 0.00 | 0.00 | 0.00 | 34 | 1025.1 |
| 20260501174207 | 67 | 223 | 1.0 | 2.0 | 0.00 | 0.00 | 0.00 | 33 | 1025.0 |
| 20260501173608 | 67 | 230 | 3.0 | 4.0 | 0.00 | 0.00 | 0.00 | 32 | 1025.0 |
| 20260501173007 | 68 | 234 | 2.0 | 4.0 | 0.00 | 0.00 | 0.00 | 32 | 1025.0 |
| 20260501172407 | 68 | 222 | 2.0 | 4.0 | 0.00 | 0.00 | 0.00 | 31 | 1024.9 |
| 20260501171807 | 68 | 232 | 2.0 | 4.0 | 0.00 | 0.00 | 0.00 | 31 | 1025.0 |
| 20260501171207 | 68 | 226 | 3.0 | 5.0 | 0.00 | 0.00 | 0.00 | 31 | 1025.0 |
| 20260501170608 | 69 | 216 | 3.0 | 5.0 | 0.00 | 0.00 | 0.00 | 29 | 1025.1 |